Hourly Weather Gogolewo

Today, 17 May, Monday

Time Temperature Precipitation Wind Pressure Humidity
00:00 +9°C° 0 mm 3 mps 742 mmHg 88%
01:00 +8°C° 0 mm 3 mps 742 mmHg 90%
02:00 +8°C° 0 mm 3 mps 742 mmHg 91%
03:00 +8°C° 0 mm 3 mps 742 mmHg 91%
04:00 +8°C° 0 mm 3 mps 741 mmHg 92%
05:00 +9°C° 0 mm 2 mps 742 mmHg 88%
06:00 +12°C° 0 mm 2 mps 742 mmHg 84%
07:00 +13°C° 0 mm 2 mps 742 mmHg 80%
08:00 +14°C° 0 mm 2 mps 742 mmHg 75%
09:00 +16°C° 0 mm 2 mps 742 mmHg 71%
10:00 +17°C° 0 mm 2 mps 743 mmHg 67%
11:00 +17°C° 0.1 mm 2 mps 742 mmHg 66%
12:00 +17°C° 0.1 mm 3 mps 742 mmHg 65%
13:00 +18°C° 0.1 mm 3 mps 742 mmHg 64%
14:00 +17°C° 0.7 mm 3 mps 743 mmHg 71%
15:00 +16°C° 0.7 mm 3 mps 743 mmHg 77%
16:00 +13°C° 0.7 mm 4 mps 743 mmHg 84%
17:00 +13°C° 0.4 mm 3 mps 743 mmHg 84%
18:00 +14°C° 0.4 mm 2 mps 743 mmHg 85%
19:00 +13°C° 0.4 mm 2 mps 743 mmHg 85%
20:00 +13°C° 0.1 mm 2 mps 743 mmHg 87%
21:00 +11°C° 0.1 mm 3 mps 744 mmHg 90%
22:00 +11°C° 0.1 mm 4 mps 744 mmHg 92%
23:00 +10°C° 0 mm 4 mps 744 mmHg 93%

Tomorrow, 18 May, Tuesday

Time Temperature Precipitation Wind Pressure Humidity
00:00 +9°C° 0 mm 5 mps 744 mmHg 93%
01:00 +9°C° 0 mm 5 mps 744 mmHg 94%
02:00 +8°C° 0 mm 5 mps 744 mmHg 94%
03:00 +8°C° 0 mm 5 mps 745 mmHg 94%
04:00 +8°C° 0 mm 5 mps 745 mmHg 94%
05:00 +8°C° 0 mm 5 mps 745 mmHg 93%
06:00 +9°C° 0 mm 6 mps 746 mmHg 91%
07:00 +9°C° 0 mm 6 mps 746 mmHg 90%
08:00 +10°C° 0 mm 6 mps 746 mmHg 87%
09:00 +10°C° 0 mm 5 mps 746 mmHg 84%
10:00 +12°C° 0 mm 5 mps 746 mmHg 80%
11:00 +13°C° 0.1 mm 5 mps 746 mmHg 77%
12:00 +14°C° 0.1 mm 5 mps 746 mmHg 73%
13:00 +15°C° 0.1 mm 5 mps 746 mmHg 69%
14:00 +15°C° 0.2 mm 5 mps 746 mmHg 69%
15:00 +15°C° 0.2 mm 5 mps 746 mmHg 69%
16:00 +15°C° 0.2 mm 5 mps 746 mmHg 69%
17:00 +14°C° 0.1 mm 4 mps 747 mmHg 73%
18:00 +13°C° 0.1 mm 4 mps 747 mmHg 77%
19:00 +12°C° 0.1 mm 3 mps 747 mmHg 82%
20:00 +11°C° 0 mm 3 mps 747 mmHg 85%
21:00 +10°C° 0 mm 3 mps 748 mmHg 89%
22:00 +8°C° 0 mm 3 mps 748 mmHg 93%
23:00 +8°C° 0.1 mm 3 mps 748 mmHg 94%

Day after tomorrow, 19 May, Wednesday

Time Temperature Precipitation Wind Pressure Humidity
00:00 +8°C° 0.1 mm 3 mps 748 mmHg 95%
01:00 +7°C° 0.1 mm 4 mps 748 mmHg 96%
02:00 +6°C° 0 mm 4 mps 749 mmHg 96%
03:00 +6°C° 0 mm 4 mps 749 mmHg 96%
04:00 +6°C° 0 mm 4 mps 749 mmHg 96%
05:00 +7°C° 0 mm 4 mps 749 mmHg 93%
06:00 +7°C° 0 mm 4 mps 749 mmHg 90%
07:00 +8°C° 0 mm 4 mps 749 mmHg 87%
08:00 +10°C° 0 mm 4 mps 750 mmHg 85%
09:00 +11°C° 0 mm 4 mps 750 mmHg 83%
10:00 +11°C° 0 mm 4 mps 750 mmHg 81%
11:00 +12°C° 0.4 mm 4 mps 750 mmHg 81%
12:00 +12°C° 0.4 mm 4 mps 750 mmHg 80%
13:00 +13°C° 0.4 mm 5 mps 750 mmHg 79%
14:00 +12°C° 0.4 mm 5 mps 750 mmHg 81%
15:00 +12°C° 0.4 mm 5 mps 750 mmHg 82%
16:00 +12°C° 0.4 mm 5 mps 750 mmHg 84%
17:00 +10°C° 0.1 mm 5 mps 750 mmHg 85%
18:00 +10°C° 0.1 mm 5 mps 750 mmHg 86%
19:00 +10°C° 0.1 mm 4 mps 751 mmHg 88%
20:00 +8°C° 0 mm 4 mps 751 mmHg 89%
21:00 +9°C° 0 mm 3 mps 751 mmHg 90%
22:00 +8°C° 0 mm 3 mps 751 mmHg 92%
23:00 +8°C° 0 mm 3 mps 751 mmHg 91%

20 May, Thursday

Time Temperature Precipitation Wind Pressure Humidity
00:00 +8°C° 0 mm 3 mps 751 mmHg 90%
01:00 +8°C° 0 mm 3 mps 751 mmHg 90%
02:00 +7°C° 0 mm 3 mps 752 mmHg 91%
03:00 +5°C° 0 mm 3 mps 752 mmHg 92%
04:00 +5°C° 0 mm 3 mps 752 mmHg 93%
05:00 +7°C° 0 mm 3 mps 752 mmHg 89%
06:00 +8°C° 0 mm 3 mps 752 mmHg 85%
07:00 +10°C° 0 mm 3 mps 753 mmHg 81%
08:00 +11°C° 0.1 mm 3 mps 753 mmHg 77%
09:00 +12°C° 0.1 mm 4 mps 753 mmHg 73%
10:00 +14°C° 0.1 mm 4 mps 752 mmHg 69%
11:00 +14°C° 0.4 mm 5 mps 752 mmHg 70%
12:00 +14°C° 0.4 mm 5 mps 752 mmHg 71%
13:00 +14°C° 0.4 mm 5 mps 752 mmHg 72%
14:00 +14°C° 0.3 mm 5 mps 752 mmHg 71%
15:00 +14°C° 0.3 mm 5 mps 753 mmHg 70%
16:00 +14°C° 0.3 mm 5 mps 753 mmHg 69%
17:00 +13°C° 0 mm 5 mps 753 mmHg 72%
18:00 +12°C° 0 mm 4 mps 753 mmHg 75%
19:00 +11°C° 0 mm 4 mps 753 mmHg 78%
20:00 +8°C° 0 mm 4 mps 754 mmHg 82%
21:00 +8°C° 0 mm 3 mps 754 mmHg 85%
22:00 +5°C° 0 mm 3 mps 754 mmHg 89%
23:00 +5°C° 0 mm 3 mps 754 mmHg 90%

21 May, Friday

Time Temperature Precipitation Wind Pressure Humidity
00:00 +4°C° 0 mm 3 mps 754 mmHg 91%
01:00 +4°C° 0 mm 3 mps 754 mmHg 92%
02:00 +4°C° 0 mm 3 mps 754 mmHg 93%
03:00 +3°C° 0 mm 3 mps 754 mmHg 94%
04:00 +3°C° 0 mm 3 mps 754 mmHg 95%
05:00 +4°C° 0 mm 4 mps 754 mmHg 90%
06:00 +6°C° 0 mm 4 mps 754 mmHg 84%
07:00 +7°C° 0 mm 5 mps 754 mmHg 79%
08:00 +9°C° 0 mm 5 mps 754 mmHg 73%
09:00 +10°C° 0 mm 5 mps 754 mmHg 66%
10:00 +13°C° 0 mm 5 mps 754 mmHg 60%
11:00 +13°C° 0 mm 4 mps 753 mmHg 60%
12:00 +13°C° 0 mm 4 mps 753 mmHg 59%
13:00 +14°C° 0 mm 3 mps 753 mmHg 59%
14:00 +14°C° 0 mm 3 mps 752 mmHg 59%
15:00 +16°C° 0 mm 2 mps 752 mmHg 58%
16:00 +16°C° 0 mm 2 mps 751 mmHg 57%
17:00 +15°C° 0 mm 2 mps 751 mmHg 64%
18:00 +14°C° 0 mm 2 mps 751 mmHg 71%
19:00 +12°C° 0 mm 3 mps 750 mmHg 77%
20:00 +12°C° 0.2 mm 3 mps 750 mmHg 82%
21:00 +11°C° 0.2 mm 3 mps 750 mmHg 86%
22:00 +10°C° 0.2 mm 2 mps 750 mmHg 91%
23:00 +10°C° 0.1 mm 3 mps 749 mmHg 91%

22 May, Saturday

Time Temperature Precipitation Wind Pressure Humidity
00:00 +10°C° 0.1 mm 3 mps 749 mmHg 91%
01:00 +10°C° 0.1 mm 3 mps 748 mmHg 91%
02:00 +10°C° 0 mm 3 mps 748 mmHg 90%
03:00 +9°C° 0 mm 3 mps 747 mmHg 89%
04:00 +9°C° 0 mm 3 mps 747 mmHg 89%
05:00 +10°C° 0 mm 4 mps 747 mmHg 85%
06:00 +11°C° 0 mm 4 mps 747 mmHg 81%
07:00 +12°C° 0 mm 5 mps 747 mmHg 78%
08:00 +14°C° 0 mm 5 mps 747 mmHg 74%
09:00 +15°C° 0 mm 5 mps 747 mmHg 69%
10:00 +17°C° 0 mm 6 mps 747 mmHg 65%
11:00 +16°C° 0.2 mm 5 mps 747 mmHg 67%
12:00 +16°C° 0.2 mm 5 mps 747 mmHg 70%
13:00 +16°C° 0.2 mm 5 mps 747 mmHg 72%
14:00 +15°C° 0.5 mm 5 mps 747 mmHg 76%
15:00 +14°C° 0.5 mm 5 mps 748 mmHg 81%
16:00 +13°C° 0.5 mm 4 mps 748 mmHg 85%
17:00 +13°C° 0.1 mm 4 mps 748 mmHg 85%
18:00 +12°C° 0.1 mm 3 mps 748 mmHg 84%
19:00 +13°C° 0.1 mm 2 mps 748 mmHg 84%
20:00 +12°C° 0 mm 2 mps 748 mmHg 85%
21:00 +10°C° 0 mm 2 mps 748 mmHg 85%
22:00 +9°C° 0 mm 2 mps 748 mmHg 85%
23:00 +9°C° 0 mm 2 mps 748 mmHg 85%
Show more